Total_Precipitation_Accumulation
0.66 0.82 0.69 0.45 0.42 0.38 0.33 0.37 0.31 0.20 0.18 0.25 0.25 0.18 0.12 0.11 0.11 0.12 0.12 0.12 0.12 0.11 0.11 0.13 0.19 0.25 0.34 0.45 0.49 0.57 0.64 0.75 0.87 0.97 1.11 1.07 1.02 1.05 1.08 1.04 1.02 1.00 1.06 1.06
0.80 0.72 0.39 0.26 0.30 0.37 0.41 0.45 0.34 0.23 0.18 0.29 0.28 0.19 0.12 0.12 0.11 0.12 0.10 0.12 0.14 0.11 0.10 0.13 0.20 0.25 0.32 0.45 0.50 0.57 0.67 0.76 0.83 0.90 0.99 1.06 1.03 1.06 1.11 1.08 1.06 1.03 1.01 1.05
0.59 0.40 0.21 0.34 0.43 0.53 0.49 0.40 0.29 0.27 0.25 0.32 0.37 0.30 0.14 0.12 0.10 0.11 0.10 0.10 0.15 0.16 0.14 0.14 0.23 0.30 0.34 0.43 0.51 0.56 0.67 0.76 0.82 0.97 1.07 1.15 1.25 1.25 1.27 1.27 1.15 1.06 1.02 0.99
0.44 0.26 0.26 0.40 0.47 0.54 0.53 0.27 0.25 0.29 0.46 0.52 0.44 0.50 0.19 0.14 0.13 0.12 0.10 0.09 0.12 0.14 0.14 0.16 0.21 0.31 0.35 0.40 0.51 0.59 0.70 0.77 0.81 1.00 1.15 1.12 1.19 1.18 1.12 1.08 1.11 1.08 1.04 1.00
0.58 0.31 0.33 0.41 0.33 0.38 0.41 0.23 0.28 0.38 0.53 0.62 0.45 0.51 0.26 0.14 0.14 0.11 0.09 0.09 0.10 0.12 0.13 0.13 0.15 0.21 0.30 0.37 0.48 0.59 0.73 0.83 0.85 0.93 1.12 1.16 1.10 1.06 1.06 1.10 1.09 1.12 1.12 1.07
0.52 0.34 0.39 0.34 0.23 0.28 0.40 0.46 0.52 0.58 0.87 1.07 0.40 0.40 0.31 0.25 0.25 0.16 0.09 0.08 0.10 0.10 0.12 0.12 0.11 0.13 0.26 0.37 0.47 0.56 0.68 0.82 0.88 0.88 1.00 1.16 1.11 1.06 1.05 1.09 1.13 1.13 1.16 1.13
0.65 0.45 0.37 0.32 0.38 0.48 0.68 1.02 1.43 1.45 1.45 0.87 0.18 0.27 0.33 0.25 0.21 0.20 0.15 0.11 0.11 0.11 0.14 0.14 0.12 0.13 0.21 0.32 0.43 0.53 0.63 0.72 0.80 0.83 0.88 0.98 1.10 1.07 0.99 0.95 1.00 1.08 1.15 1.11
0.72 0.55 0.41 0.38 0.43 0.61 0.72 0.92 1.17 1.07 0.69 0.26 0.12 0.24 0.26 0.17 0.13 0.13 0.11 0.10 0.10 0.09 0.10 0.11 0.13 0.15 0.19 0.23 0.30 0.44 0.54 0.67 0.80 0.84 0.84 0.89 0.99 1.10 1.02 0.94 0.92 0.97 1.02 0.99
0.74 0.49 0.30 0.29 0.28 0.42 0.67 0.72 0.60 0.76 0.54 0.33 0.22 0.20 0.16 0.07 0.07 0.08 0.09 0.08 0.10 0.09 0.09 0.10 0.12 0.15 0.17 0.22 0.25 0.36 0.45 0.60 0.78 0.89 0.88 0.88 0.93 1.02 1.04 0.95 0.91 0.93 0.93 0.93
0.79 0.62 0.29 0.27 0.37 0.47 0.55 0.65 0.80 1.13 0.92 0.47 0.24 0.23 0.24 0.14 0.12 0.10 0.10 0.10 0.10 0.11 0.11 0.11 0.12 0.15 0.17 0.20 0.23 0.31 0.40 0.48 0.60 0.79 0.93 0.93 0.90 0.91 0.99 1.01 0.97 0.92 0.92 0.92
0.79 0.81 0.48 0.43 0.61 0.66 0.64 0.86 1.07 1.10 0.79 0.56 0.35 0.31 0.30 0.23 0.18 0.15 0.12 0.12 0.12 0.11 0.11 0.11 0.13 0.16 0.18 0.21 0.26 0.32 0.39 0.45 0.51 0.62 0.78 0.90 0.91 0.95 1.00 1.04 0.99 0.98 0.95 0.94
0.76 0.97 0.65 0.40 0.40 0.40 0.56 0.75 0.95 1.14 0.80 0.43 0.38 0.33 0.24 0.19 0.17 0.16 0.14 0.11 0.10 0.09 0.10 0.10 0.11 0.16 0.20 0.24 0.29 0.35 0.43 0.45 0.47 0.55 0.66 0.78 0.89 0.94 1.00 0.99 1.01 1.06 1.05 0.97
1.09 1.44 1.17 0.74 0.63 0.60 0.69 0.63 0.68 0.82 0.76 0.48 0.36 0.26 0.15 0.12 0.12 0.12 0.13 0.13 0.11 0.09 0.09 0.10 0.12 0.16 0.22 0.26 0.29 0.37 0.44 0.44 0.45 0.55 0.64 0.74 0.86 0.89 0.93 0.90 0.93 1.09 1.20 1.14
1.40 1.49 1.04 0.82 0.67 0.64 0.61 0.49 0.47 0.75 0.89 0.47 0.22 0.17 0.12 0.12 0.12 0.11 0.13 0.15 0.13 0.10 0.09 0.11 0.14 0.17 0.20 0.23 0.27 0.33 0.41 0.47 0.49 0.52 0.62 0.71 0.80 0.82 0.82 0.82 0.83 0.96 1.13 1.21
1.20 1.20 0.54 0.28 0.23 0.31 0.34 0.31 0.34 0.46 0.45 0.36 0.19 0.17 0.16 0.15 0.15 0.15 0.15 0.15 0.14 0.11 0.10 0.11 0.14 0.17 0.22 0.26 0.28 0.31 0.37 0.47 0.54 0.52 0.60 0.63 0.69 0.78 0.78 0.76 0.80 0.89 1.02 1.10
1.12 1.08 0.54 0.29 0.17 0.23 0.27 0.22 0.23 0.25 0.21 0.19 0.14 0.16 0.17 0.17 0.15 0.15 0.14 0.14 0.15 0.13 0.11 0.12 0.13 0.17 0.23 0.28 0.32 0.35 0.39 0.44 0.52 0.53 0.57 0.59 0.67 0.77 0.81 0.75 0.78 0.89 1.00 1.05
1.11 1.11 0.95 0.52 0.23 0.42 0.46 0.25 0.21 0.23 0.21 0.19 0.21 0.21 0.18 0.17 0.17 0.17 0.17 0.17 0.16 0.14 0.13 0.13 0.16 0.20 0.24 0.29 0.31 0.37 0.39 0.43 0.50 0.53 0.54 0.59 0.68 0.72 0.79 0.79 0.81 0.91 1.01 1.03
0.91 1.07 1.29 0.85 0.62 0.88 0.42 0.18 0.17 0.22 0.24 0.21 0.19 0.15 0.15 0.18 0.19 0.21 0.19 0.19 0.18 0.18 0.18 0.17 0.19 0.22 0.22 0.26 0.26 0.31 0.37 0.47 0.53 0.54 0.51 0.57 0.65 0.68 0.77 0.82 0.84 0.94 1.03 1.00
0.47 0.94 1.43 1.17 0.85 0.44 0.23 0.21 0.28 0.35 0.35 0.24 0.18 0.12 0.11 0.13 0.17 0.23 0.19 0.18 0.19 0.20 0.22 0.21 0.21 0.21 0.21 0.24 0.25 0.25 0.31 0.43 0.53 0.57 0.51 0.53 0.62 0.67 0.74 0.80 0.87 0.94 1.02 0.99
0.46 0.88 1.52 1.29 0.93 0.44 0.28 0.20 0.23 0.33 0.45 0.26 0.18 0.15 0.14 0.17 0.26 0.26 0.21 0.19 0.19 0.19 0.21 0.21 0.20 0.19 0.21 0.24 0.25 0.23 0.27 0.35 0.47 0.55 0.48 0.50 0.56 0.60 0.68 0.75 0.85 0.92 0.93 0.92
0.84 1.31 1.49 1.07 0.82 0.33 0.22 0.21 0.26 0.53 0.58 0.29 0.22 0.21 0.20 0.24 0.27 0.24 0.24 0.24 0.23 0.22 0.21 0.19 0.19 0.20 0.23 0.25 0.25 0.25 0.28 0.31 0.40 0.51 0.48 0.51 0.54 0.57 0.64 0.73 0.77 0.84 0.88 0.86
0.70 0.96 0.93 0.81 0.86 0.43 0.25 0.32 0.54 0.61 0.33 0.24 0.22 0.21 0.21 0.21 0.18 0.17 0.20 0.25 0.28 0.24 0.21 0.20 0.19 0.20 0.20 0.22 0.26 0.27 0.31 0.32 0.38 0.47 0.49 0.54 0.59 0.61 0.64 0.70 0.68 0.71 0.82 0.85
0.50 0.67 0.74 0.69 0.54 0.34 0.30 0.39 0.42 0.33 0.27 0.22 0.21 0.20 0.20 0.19 0.18 0.18 0.21 0.25 0.29 0.26 0.23 0.22 0.22 0.20 0.19 0.21 0.26 0.31 0.36 0.36 0.41 0.46 0.49 0.55 0.63 0.66 0.67 0.65 0.66 0.70 0.76 0.84
0.41 0.40 0.49 0.45 0.31 0.24 0.23 0.24 0.23 0.20 0.21 0.20 0.19 0.19 0.19 0.19 0.17 0.18 0.19 0.24 0.26 0.27 0.26 0.25 0.25 0.23 0.22 0.22 0.25 0.33 0.39 0.38 0.42 0.46 0.47 0.53 0.58 0.65 0.68 0.64 0.61 0.63 0.72 0.83
0.33 0.35 0.38 0.33 0.21 0.20 0.19 0.18 0.17 0.15 0.14 0.14 0.14 0.14 0.15 0.16 0.16 0.18 0.20 0.23 0.28 0.28 0.28 0.27 0.27 0.26 0.25 0.24 0.28 0.34 0.38 0.39 0.43 0.43 0.43 0.47 0.50 0.61 0.71 0.70 0.64 0.63 0.64 0.79
0.20 0.26 0.32 0.28 0.20 0.25 0.22 0.17 0.16 0.15 0.14 0.15 0.15 0.13 0.12 0.14 0.16 0.17 0.18 0.21 0.29 0.32 0.31 0.29 0.29 0.28 0.28 0.29 0.33 0.38 0.40 0.40 0.41 0.42 0.42 0.44 0.47 0.55 0.65 0.69 0.71 0.77 0.75 0.78